TimeMDT,TemperatureF,Dew PointF,Humidity,Sea Level PressureIn,VisibilityMPH,Wind Direction,Wind SpeedMPH,Gust SpeedMPH,PrecipitationIn,Events,Conditions,WindDirDegrees,DateUTC
12:15 AM,69.8,17.6,14,30.07,10.0,Calm,Calm,-,N/A,,Clear,0,2013-04-28 06:15:00
12:35 AM,69.8,17.6,14,30.07,10.0,ENE,3.5,-,N/A,,Clear,70,2013-04-28 06:35:00
12:55 AM,66.2,17.6,15,30.07,10.0,South,3.5,-,N/A,,Clear,170,2013-04-28 06:55:00
1:15 AM,64.4,17.6,16,30.07,10.0,Calm,Calm,-,N/A,,Clear,0,2013-04-28 07:15:00
1:35 AM,66.2,17.6,15,30.07,10.0,SSW,3.5,-,N/A,,Clear,210,2013-04-28 07:35:00
1:55 AM,66.2,17.6,15,30.07,10.0,Calm,Calm,-,N/A,,Clear,0,2013-04-28 07:55:00
2:15 AM,66.2,17.6,15,30.07,10.0,ESE,4.6,-,N/A,,Clear,110,2013-04-28 08:15:00
2:35 AM,62.6,15.8,16,30.07,10.0,East,10.4,-,N/A,,Clear,100,2013-04-28 08:35:00
2:55 AM,62.6,15.8,16,30.07,10.0,ESE,10.4,-,N/A,,Clear,110,2013-04-28 08:55:00
3:15 AM,62.6,15.8,16,30.07,10.0,ESE,4.6,-,N/A,,Clear,110,2013-04-28 09:15:00
3:35 AM,62.6,15.8,16,30.07,10.0,SE,9.2,-,N/A,,Clear,130,2013-04-28 09:35:00
3:55 AM,60.8,15.8,17,30.07,10.0,ESE,10.4,-,N/A,,Clear,120,2013-04-28 09:55:00
4:15 AM,60.8,15.8,17,30.07,10.0,SE,6.9,-,N/A,,Clear,130,2013-04-28 10:15:00
4:35 AM,60.8,15.8,17,30.07,10.0,East,9.2,-,N/A,,Clear,90,2013-04-28 10:35:00
4:55 AM,59.0,15.8,19,30.07,10.0,SSE,3.5,-,N/A,,Clear,150,2013-04-28 10:55:00
5:15 AM,59.0,15.8,19,30.08,10.0,Calm,Calm,-,N/A,,Clear,0,2013-04-28 11:15:00
5:35 AM,60.8,15.8,17,30.08,10.0,ESE,3.5,-,N/A,,Clear,120,2013-04-28 11:35:00
6:15 AM,59.0,15.8,19,30.08,10.0,East,4.6,-,N/A,,Clear,90,2013-04-28 12:15:00
6:35 AM,57.2,15.8,20,30.08,10.0,SE,4.6,-,N/A,,Clear,140,2013-04-28 12:35:00
7:15 AM,55.4,15.8,21,30.09,10.0,Calm,Calm,-,N/A,,Clear,0,2013-04-28 13:15:00
7:35 AM,55.4,15.8,21,30.10,10.0,SSE,3.5,-,N/A,,Clear,150,2013-04-28 13:35:00
7:55 AM,57.2,17.6,21,30.10,10.0,SSE,5.8,-,N/A,,Clear,150,2013-04-28 13:55:00
8:15 AM,60.8,19.4,20,30.10,10.0,South,3.5,-,N/A,,Clear,190,2013-04-28 14:15:00
8:35 AM,62.6,19.4,19,30.10,10.0,SSE,3.5,-,N/A,,Clear,160,2013-04-28 14:35:00
8:55 AM,64.4,19.4,18,30.10,10.0,SE,3.5,-,N/A,,Clear,140,2013-04-28 14:55:00
9:15 AM,64.4,19.4,18,30.10,10.0,Calm,Calm,-,N/A,,Clear,0,2013-04-28 15:15:00
9:35 AM,64.4,21.2,19,30.10,10.0,Calm,Calm,-,N/A,,Clear,0,2013-04-28 15:35:00
9:55 AM,68.0,19.4,16,30.09,10.0,SW,3.5,-,N/A,,Clear,220,2013-04-28 15:55:00
10:15 AM,68.0,19.4,16,30.08,10.0,Calm,Calm,-,N/A,,Clear,0,2013-04-28 16:15:00
10:35 AM,69.8,21.2,16,30.08,10.0,Calm,Calm,-,N/A,,Clear,0,2013-04-28 16:35:00
10:55 AM,71.6,21.2,15,30.08,10.0,Calm,Calm,-,N/A,,Clear,0,2013-04-28 16:55:00
11:15 AM,71.6,21.2,15,30.07,10.0,Calm,Calm,-,N/A,,Clear,0,2013-04-28 17:15:00
11:35 AM,73.4,21.2,14,30.06,10.0,SW,3.5,-,N/A,,Clear,230,2013-04-28 17:35:00
11:55 AM,75.2,23.0,14,30.06,10.0,SSW,3.5,-,N/A,,Clear,200,2013-04-28 17:55:00
12:15 PM,75.2,23.0,14,30.05,10.0,Calm,Calm,-,N/A,,Clear,0,2013-04-28 18:15:00
12:55 PM,80.6,23.0,12,30.03,10.0,Calm,Calm,-,N/A,,Clear,0,2013-04-28 18:55:00
1:15 PM,82.4,23.0,11,30.01,10.0,WSW,4.6,-,N/A,,Clear,250,2013-04-28 19:15:00
1:35 PM,84.2,24.8,11,30.00,10.0,Calm,Calm,-,N/A,,Clear,0,2013-04-28 19:35:00
1:55 PM,86.0,24.8,11,29.99,10.0,SE,3.5,-,N/A,,Clear,140,2013-04-28 19:55:00
2:15 PM,86.0,24.8,11,29.98,10.0,SSW,6.9,-,N/A,,Clear,210,2013-04-28 20:15:00
2:35 PM,87.8,26.6,11,29.97,10.0,WSW,3.5,-,N/A,,Clear,240,2013-04-28 20:35:00
2:55 PM,87.8,26.6,11,29.96,10.0,SW,5.8,-,N/A,,Clear,220,2013-04-28 20:55:00
3:15 PM,87.8,26.6,11,29.95,10.0,West,12.7,-,N/A,,Clear,270,2013-04-28 21:15:00
3:35 PM,89.6,26.6,10,29.93,10.0,SW,10.4,17.3,N/A,,Clear,230,2013-04-28 21:35:00
3:55 PM,89.6,26.6,10,29.92,10.0,SSW,13.8,18.4,N/A,,Clear,210,2013-04-28 21:55:00
4:15 PM,89.6,26.6,10,29.91,10.0,SW,12.7,21.9,N/A,,Clear,220,2013-04-28 22:15:00
4:35 PM,89.6,26.6,10,29.91,10.0,WSW,10.4,19.6,N/A,,Clear,240,2013-04-28 22:35:00
5:15 PM,89.6,26.6,10,29.89,10.0,WSW,11.5,20.7,N/A,,Clear,250,2013-04-28 23:15:00
5:35 PM,89.6,26.6,10,29.89,10.0,WSW,13.8,20.7,N/A,,Clear,240,2013-04-28 23:35:00
5:55 PM,89.6,26.6,10,29.88,10.0,West,15.0,21.9,N/A,,Clear,260,2013-04-28 23:55:00
6:15 PM,89.6,26.6,10,29.88,10.0,WSW,12.7,16.1,N/A,,Clear,240,2013-04-29 00:15:00
6:35 PM,89.6,26.6,10,29.88,10.0,West,12.7,-,N/A,,Clear,260,2013-04-29 00:35:00
6:55 PM,89.6,26.6,10,29.87,10.0,WSW,12.7,-,N/A,,Clear,240,2013-04-29 00:55:00
7:15 PM,87.8,26.6,11,29.86,10.0,WSW,12.7,-,N/A,,Clear,250,2013-04-29 01:15:00
7:35 PM,87.8,24.8,10,29.86,10.0,WSW,12.7,-,N/A,,Clear,250,2013-04-29 01:35:00
7:55 PM,87.8,24.8,10,29.86,10.0,WSW,9.2,-,N/A,,Clear,250,2013-04-29 01:55:00
8:15 PM,84.2,23.0,11,29.86,10.0,WSW,5.8,-,N/A,,Clear,250,2013-04-29 02:15:00
8:35 PM,82.4,21.2,10,29.86,10.0,WSW,5.8,-,N/A,,Clear,250,2013-04-29 02:35:00
8:55 PM,82.4,21.2,10,29.86,10.0,WSW,5.8,-,N/A,,Clear,250,2013-04-29 02:55:00
9:15 PM,80.6,19.4,10,29.86,10.0,South,5.8,-,N/A,,Clear,190,2013-04-29 03:15:00
9:35 PM,77.0,17.6,11,29.87,10.0,WSW,4.6,-,N/A,,Clear,250,2013-04-29 03:35:00
9:55 PM,73.4,17.6,12,29.87,10.0,ESE,3.5,-,N/A,,Clear,120,2013-04-29 03:55:00
10:15 PM,75.2,17.6,11,29.88,10.0,ESE,3.5,-,N/A,,Clear,120,2013-04-29 04:15:00
10:35 PM,73.4,17.6,12,29.88,10.0,East,6.9,-,N/A,,Clear,100,2013-04-29 04:35:00
10:55 PM,73.4,17.6,12,29.88,10.0,ESE,6.9,-,N/A,,Clear,120,2013-04-29 04:55:00
11:15 PM,73.4,17.6,12,29.88,10.0,SE,4.6,-,N/A,,Clear,130,2013-04-29 05:15:00
11:35 PM,73.4,17.6,12,29.87,10.0,SE,5.8,-,N/A,,Clear,130,2013-04-29 05:35:00
11:55 PM,69.8,17.6,14,29.88,10.0,ESE,8.1,-,N/A,,Clear,120,2013-04-29 05:55:00